Weather History for KCOD - April, 2013

Change the Weather History Date:

Wednesday, April 24, 2013

  Actual Average (KGEY) Record (KGEY)
Temperature  
Mean Temperature 37 °F 49 °F  
Max Temperature 51 °F 63 °F 86 °F (2012)
Min Temperature 23 °F 35 °F 25 °F (2002)
Degree Days  
Heating Degree Days 28 16  
Month to date heating degree days 468  
Since 1 July heating degree days 7310  
Cooling Degree Days 0 0  
Month to date cooling degree days 0  
Year to date cooling degree days 0  
Moisture  
Dew Point 21 °F    
Average Humidity 57    
Maximum Humidity 86    
Minimum Humidity 24    
Precipitation  
Precipitation 0.00 in 0.03 in 0.17 in (2006)
Month to date precipitation 0.53  
Year to date precipitation 1.34  
Sea Level Pressure  
Sea Level Pressure 30.11 in    
Wind  
Wind Speed 6 mph (SSE)    
Max Wind Speed 18 mph    
Max Gust Speed 25 mph    
Visibility 10 miles    
Events      
T = Trace of Precipitation, MM = Missing Value Source: NWS Daily Summary

Daily Weather History Graph

Daily Weather History Graph

Search for Another Location

Airport or City:

Trip Planner

Search our weather history database for the weather conditions in past years. The results will help you decide how hot, cold, wet, or windy it might be!

Date:

Astronomy

Apr. 24, 2013 Rise Set
Actual Time 6:16 AM MDT 8:12 PM MDT
Civil Twilight 5:45 AM MDT 8:43 PM MDT
Nautical Twilight 5:07 AM MDT 9:22 PM MDT
Astronomical Twilight 4:25 AM MDT 10:04 PM MDT
Moon 7:18 PM MDT (4/24) 5:25 AM MDT (4/24)
Length of Visible Light 14h 58m
Length of Day
13h 55m
Waxing Gibbous, 98% of the Moon is Illuminated
Apr 24
Waxing Gibbous
Apr 25
Full
May 2
Last Quarter
May 9
New
May 17
First Quarter

Hourly Weather History & Observations

Time (MDT) Temp. Windchill Dew Point Humidity Pressure Visibility Wind Dir Wind Speed Gust Speed Precip Events Conditions
12:15 AM 30.2 °F 24.3 °F 24.8 °F 80% 30.12 in 10.0 mi West 5.8 mph - N/A   Overcast
12:35 AM 28.4 °F 20.4 °F 23.0 °F 80% 30.13 in 10.0 mi North 8.1 mph - N/A   Overcast
12:55 AM 28.4 °F 21.2 °F 21.2 °F 74% 30.13 in 10.0 mi North 6.9 mph - N/A   Mostly Cloudy
1:15 AM 28.4 °F - 21.2 °F 74% 30.13 in 10.0 mi Calm Calm - N/A   Clear
1:35 AM 26.6 °F - 21.2 °F 80% 30.14 in 10.0 mi Calm Calm - N/A   Clear
1:55 AM 26.6 °F - 21.2 °F 80% 30.14 in 10.0 mi Calm Calm - N/A   Clear
2:15 AM 26.6 °F - 19.4 °F 74% 30.13 in 10.0 mi Calm Calm - N/A   Partly Cloudy
2:35 AM 24.8 °F 17.9 °F 19.4 °F 80% 30.13 in 10.0 mi South 5.8 mph - N/A   Scattered Clouds
2:55 AM 24.8 °F 19.1 °F 21.2 °F 86% 30.13 in 10.0 mi South 4.6 mph - N/A   Mostly Cloudy
3:15 AM 26.6 °F - 21.2 °F 80% 30.12 in 10.0 mi Calm Calm - N/A   Partly Cloudy
3:35 AM 26.6 °F - 21.2 °F 80% 30.13 in 10.0 mi Calm Calm - N/A   Clear
3:55 AM 26.6 °F - 21.2 °F 80% 30.13 in 10.0 mi Calm Calm - N/A   Clear
4:15 AM 26.6 °F 20.0 °F 19.4 °F 74% 30.13 in 10.0 mi South 5.8 mph - N/A   Clear
4:35 AM 26.6 °F - 23.0 °F 86% 30.13 in 10.0 mi Calm Calm - N/A   Clear
4:55 AM 26.6 °F - 21.2 °F 80% 30.14 in 10.0 mi Calm Calm - N/A   Clear
5:16 AM 24.8 °F - 21.2 °F 86% 30.14 in 10.0 mi Calm Calm - N/A   Clear
5:35 AM 24.8 °F - 21.2 °F 86% 30.14 in 10.0 mi Calm Calm - N/A   Clear
5:55 AM 23.0 °F - 19.4 °F 86% 30.15 in 10.0 mi Calm Calm - N/A   Clear
6:15 AM 24.8 °F 20.5 °F 21.2 °F 86% 30.15 in 10.0 mi West 3.5 mph - N/A   Clear
6:35 AM 23.0 °F - 19.4 °F 86% 30.16 in 10.0 mi Calm Calm - N/A   Clear
7:15 AM 24.8 °F - 19.4 °F 80% 30.17 in 10.0 mi Calm Calm - N/A   Mostly Cloudy
7:35 AM 26.6 °F - 23.0 °F 86% 30.18 in 10.0 mi Calm Calm - N/A   Scattered Clouds
7:55 AM 28.4 °F 21.2 °F 24.8 °F 86% 30.18 in 10.0 mi North 6.9 mph - N/A   Clear
8:15 AM 28.4 °F 19.7 °F 24.8 °F 86% 30.19 in 10.0 mi NNE 9.2 mph - N/A   Clear
8:35 AM 30.2 °F 21.3 °F 26.6 °F 86% 30.20 in 10.0 mi NNE 10.4 mph - N/A   Clear
8:55 AM 32.0 °F 23.0 °F 26.6 °F 80% 30.20 in 10.0 mi NNE 11.5 mph - N/A   Clear
9:15 AM 33.8 °F 28.6 °F 26.6 °F 75% 30.20 in 10.0 mi ENE 5.8 mph - N/A   Clear
9:35 AM 33.8 °F - 26.6 °F 75% 30.19 in 10.0 mi Calm Calm - N/A   Clear
9:55 AM 35.6 °F 32.8 °F 24.8 °F 65% 30.19 in 10.0 mi ENE 3.5 mph - N/A   Clear
10:16 AM 35.6 °F 30.7 °F 24.8 °F 65% 30.20 in 10.0 mi East 5.8 mph - N/A   Clear
10:35 AM 37.4 °F - 24.8 °F 60% 30.19 in 10.0 mi Calm Calm - N/A   Clear
10:55 AM 37.4 °F 34.9 °F 26.6 °F 65% 30.18 in 10.0 mi SE 3.5 mph - N/A   Clear
11:15 AM 39.2 °F 35.9 °F 26.6 °F 61% 30.18 in 10.0 mi ESE 4.6 mph - N/A   Clear
11:35 AM 39.2 °F 33.6 °F 24.8 °F 56% 30.18 in 10.0 mi NE 8.1 mph - N/A   Mostly Cloudy
11:55 AM 41.0 °F 37.1 °F 24.8 °F 53% 30.18 in 10.0 mi East 5.8 mph - N/A   Mostly Cloudy
12:15 PM 41.0 °F 37.1 °F 23.0 °F 49% 30.17 in 10.0 mi NE 5.8 mph - N/A   Clear
12:35 PM 42.8 °F 38.6 °F 23.0 °F 46% 30.17 in 10.0 mi NNE 6.9 mph - N/A   Clear
12:55 PM 44.6 °F 41.4 °F 23.0 °F 43% 30.16 in 10.0 mi ENE 5.8 mph - N/A   Clear
1:15 PM 44.6 °F 40.7 °F 21.2 °F 39% 30.15 in 10.0 mi ENE 6.9 mph - N/A   Clear
1:35 PM 44.6 °F 42.2 °F 21.2 °F 39% 30.15 in 10.0 mi South 4.6 mph - N/A   Partly Cloudy
1:55 PM 44.6 °F 40.7 °F 23.0 °F 43% 30.14 in 10.0 mi ESE 6.9 mph 16.1 mph N/A   Scattered Clouds
2:15 PM 44.6 °F 38.4 °F 21.2 °F 39% 30.13 in 10.0 mi SSE 12.7 mph 16.1 mph N/A   Mostly Cloudy
2:35 PM 46.4 °F 43.5 °F 21.2 °F 37% 30.13 in 10.0 mi South 5.8 mph - N/A   Scattered Clouds
2:55 PM 46.4 °F 42.9 °F 23.0 °F 40% 30.12 in 10.0 mi South 6.9 mph - N/A   Clear
3:15 PM 46.4 °F 41.9 °F 23.0 °F 40% 30.11 in 10.0 mi SSE 9.2 mph - N/A   Clear
3:35 PM 46.4 °F 40.1 °F 23.0 °F 40% 30.10 in 10.0 mi SSE 15.0 mph - N/A   Clear
3:55 PM 48.2 °F - 21.2 °F 34% 30.09 in 10.0 mi SSE 8.1 mph - N/A   Clear
4:15 PM 46.4 °F 40.7 °F 21.2 °F 37% 30.08 in 10.0 mi SE 12.7 mph 16.1 mph N/A   Clear
4:55 PM 48.2 °F - 23.0 °F 37% 30.06 in 10.0 mi SE 10.4 mph - N/A   Clear
5:15 PM 48.2 °F - 21.2 °F 34% 30.05 in 10.0 mi SE 13.8 mph - N/A   Clear
5:35 PM 48.2 °F - 21.2 °F 34% 30.04 in 10.0 mi SE 13.8 mph 18.4 mph N/A   Clear
5:55 PM 50.0 °F - 23.0 °F 35% 30.04 in 10.0 mi SE 15.0 mph 18.4 mph N/A   Clear
6:15 PM 50.0 °F - 24.8 °F 37% 30.03 in 10.0 mi ESE 16.1 mph - N/A   Clear
6:55 PM 51.8 °F - 19.4 °F 28% 30.00 in 10.0 mi WSW 10.4 mph 16.1 mph N/A   Clear
7:15 PM 51.8 °F - 17.6 °F 26% 30.00 in 10.0 mi West 9.2 mph - N/A   Clear
7:35 PM 51.8 °F - 15.8 °F 24% 29.99 in 10.0 mi WSW 11.5 mph 18.4 mph N/A   Clear
7:55 PM 50.0 °F - 15.8 °F 26% 29.99 in 10.0 mi WSW 15.0 mph 23.0 mph N/A   Clear
8:16 PM 48.2 °F - 15.8 °F 27% 29.99 in 10.0 mi WSW 12.7 mph 19.6 mph N/A   Clear
8:55 PM 48.2 °F - 15.8 °F 27% 30.00 in 10.0 mi WSW 13.8 mph 24.2 mph N/A   Clear
9:15 PM 48.2 °F - 15.8 °F 27% 30.00 in 10.0 mi WSW 17.3 mph 23.0 mph N/A   Clear
9:35 PM 48.2 °F - 15.8 °F 27% 30.00 in 10.0 mi WSW 11.5 mph 25.3 mph N/A   Clear
9:55 PM 48.2 °F - 15.8 °F 27% 30.00 in 10.0 mi WSW 11.5 mph 18.4 mph N/A   Clear
10:35 PM 48.2 °F - 15.8 °F 27% 30.00 in 10.0 mi WSW 18.4 mph 23.0 mph N/A   Clear
10:55 PM 48.2 °F - 15.8 °F 27% 29.99 in 10.0 mi WSW 18.4 mph 23.0 mph N/A   Clear
11:55 PM 48.2 °F - 14.0 °F 25% 29.98 in 10.0 mi WSW 13.8 mph 24.2 mph N/A   Clear